{"data":{"norad_id":51643,"epoch":"2026-05-25T02:58:55.549056Z","epoch_age_seconds":57505,"freshness":"FRESH","line1":"1 51643U 22012X   26145.12425404  .00000039  00000+0  67910-4 0  9994","line2":"2 51643  87.9164  10.4273 0002068  86.0383 274.0985 13.17648852210628","mean_motion":13.17648852,"eccentricity":0.0002068,"inclination_deg":87.9164,"raan_deg":10.4273,"arg_perigee_deg":86.0383,"mean_anomaly_deg":274.0985,"bstar":6.791e-5,"rev_number":21062,"period_min":109.28556555977,"perigee_km":1192.1479680993,"apogee_km":1195.2796856013,"semimajor_km":7571.8508268503,"source":"CELESTRAK","updated_at":"2026-05-25T13:38:22.580718Z"}}